Location: ???????
(55.7027°N, 37.3832°E)
Time: 19:56:56
(UTC+00:00)

Spot 2 Rocket - Pass Details

Date: 14 April 2026
Orbit: 752 x 766 km, 98.3° (Epoch: 19 May)

Event Time Altitude Azimuth Distance (km) Brightness Sun altitude
Exits shadow 17:56:27 10° 159° (SSE) 2,311 5.5 -11.1°
Reaches altitude 10° 17:56:31 10° 159° (SSE) 2,282 5.5 -11.1°
Maximum altitude 18:01:33 83° 72° (ENE) 768 3.5 -11.6°
Drops below altitude 10° 18:06:36 10° 345° (NNW) 2,291 6.8 -12.2°
Sets 18:08:54 0° 345° (NNW) 3,220 7.7 -12.5°
